Location: Zagreb
(45.8150°N, 15.9819°E)
Time: 18:45:21
(UTC+01:00)

STARLINK-1752 - Pass Details

Date: 20 September 2020
Orbit: 548 x 551 km, 53.0° (Epoch: 27 October)

Event Time Altitude Azimuth Distance (km) Brightness Sun altitude
Exits shadow 05:50:06 - 297° (WNW) 2,040 6.1 -9.6°
Reaches altitude 10° 05:50:45 10° 301° (WNW) 1,808 5.8 -9.5°
Maximum altitude 05:54:23 29° 4° (N) 1,001 5.1 -8.9°
Drops below altitude 10° 05:58:00 10° 66° (ENE) 1,803 7.8 -8.3°
Sets 06:00:21 0° 77° (ENE) 2,657 9.6 -7.9°
